Location: Dammartin
(48.9032°N, 1.6195°E)
Time: 10:08:38
(UTC+00:00)

SJ-6B - Pass Details

Date: 03 February 2023
Orbit: 501 x 570 km, 97.5° (Epoch: 28 March)

Event Time Altitude Azimuth Distance (km) Brightness Sun altitude
Exits shadow 19:27:58 29° 345° (NNW) 1,026 4.3 -25.5°
Drops below altitude 10° 19:30:01 10° 346° (NNW) 1,850 5.7 -25.8°
Sets 19:32:11 0° 347° (NNW) 2,761 6.6 -26.2°
